WIF8XA ENTO-ENVA

Flight info

Callsign WIF8XA
Flight time 1h 6m
Altitude 25000
Route ELVOM DCT LULIL DCT LILBA/N0316F240 DCT GIGNI DCT VEVOD
Aircraft DH8D/M-SDFGRY/SB1

Departure

Time 2026-04-27 13:19
Airport Sandefjord Airport, Torp (ENTO)

Arrival

Time 2026-04-27 14:26
Airport Trondheim Airport, Værnes (ENVA)
Time Latitude Longitude Altitude Speed Heading
2026-04-27 13:00 59.18001 10.25408 276 ft 0 kts 224°
2026-04-27 13:15 59.17999 10.25398 275 ft 1 kts 270°
2026-04-27 13:16 59.18026 10.25396 276 ft 7 kts 11°
2026-04-27 13:16 59.18050 10.25487 275 ft 10 kts 113°
2026-04-27 13:16 59.17971 10.25536 273 ft 13 kts 178°
2026-04-27 13:16 59.17878 10.25540 272 ft 12 kts 172°
2026-04-27 13:17 59.17798 10.25626 269 ft 14 kts 145°
2026-04-27 13:17 59.17755 10.25684 267 ft 0 kts 145°
2026-04-27 13:18 59.17738 10.25707 267 ft 12 kts 145°
2026-04-27 13:18 59.17656 10.25836 265 ft 14 kts 101°
2026-04-27 13:18 59.17697 10.25884 265 ft 0 kts 359°
2026-04-27 13:18 59.17804 10.25882 267 ft 53 kts 359°
2026-04-27 13:19 59.18463 10.25865 281 ft 129 kts 359°
2026-04-27 13:19 59.19461 10.25844 504 ft 151 kts
2026-04-27 13:19 59.20535 10.25864 1000 ft 162 kts
2026-04-27 13:19 59.21675 10.25866 1602 ft 167 kts
2026-04-27 13:20 59.22850 10.25857 2195 ft 173 kts
2026-04-27 13:20 59.24075 10.25842 2746 ft 180 kts
2026-04-27 13:20 59.25320 10.25817 3236 ft 184 kts
2026-04-27 13:20 59.26612 10.25787 3792 ft 185 kts
2026-04-27 13:21 59.27891 10.25781 4347 ft 186 kts
2026-04-27 13:21 59.29034 10.26738 4809 ft 187 kts 50°
2026-04-27 13:21 59.29431 10.29157 5214 ft 192 kts 85°
2026-04-27 13:21 59.29534 10.31750 5705 ft 193 kts 80°
2026-04-27 13:22 59.29749 10.34349 6191 ft 194 kts 77°
2026-04-27 13:22 59.30033 10.36915 6667 ft 195 kts 73°
2026-04-27 13:22 59.30377 10.39505 7184 ft 197 kts 71°
2026-04-27 13:22 59.30779 10.42176 7347 ft 218 kts 70°
2026-04-27 13:23 59.31260 10.45060 7735 ft 226 kts 69°
2026-04-27 13:23 59.31770 10.47971 8211 ft 230 kts 68°
2026-04-27 13:23 59.32460 10.50814 8681 ft 229 kts 47°
2026-04-27 13:23 59.33787 10.52388 9109 ft 227 kts 15°
2026-04-27 13:24 59.35313 10.53099 9614 ft 229 kts 11°
2026-04-27 13:24 59.36883 10.53748 10129 ft 231 kts 10°
2026-04-27 13:24 59.38444 10.54352 10651 ft 231 kts
2026-04-27 13:24 59.40011 10.54934 11177 ft 232 kts
2026-04-27 13:25 59.41610 10.55511 11713 ft 233 kts
2026-04-27 13:25 59.43190 10.56070 12240 ft 234 kts
2026-04-27 13:25 59.44797 10.56631 12790 ft 233 kts
2026-04-27 13:25 59.46383 10.57174 13327 ft 233 kts
2026-04-27 13:26 59.47963 10.57714 13846 ft 232 kts
2026-04-27 13:26 59.49551 10.58256 14355 ft 232 kts
2026-04-27 13:26 59.51127 10.58789 14816 ft 233 kts
2026-04-27 13:26 59.52725 10.59328 15251 ft 234 kts
2026-04-27 13:27 59.54346 10.59872 15674 ft 236 kts
2026-04-27 13:27 59.55969 10.60416 16090 ft 238 kts
2026-04-27 13:27 59.57616 10.60968 16492 ft 239 kts
2026-04-27 13:27 59.59253 10.61518 16878 ft 241 kts
2026-04-27 13:28 59.60909 10.62073 17257 ft 242 kts
2026-04-27 13:28 59.62556 10.62626 17623 ft 243 kts
2026-04-27 13:28 59.64220 10.63185 17972 ft 245 kts
2026-04-27 13:28 59.65911 10.63753 18315 ft 246 kts
2026-04-27 13:29 59.67611 10.64326 18648 ft 248 kts
2026-04-27 13:29 59.69303 10.64896 18969 ft 249 kts
2026-04-27 13:29 59.71018 10.65474 19267 ft 251 kts
2026-04-27 13:29 59.72759 10.66062 19558 ft 252 kts
2026-04-27 13:30 59.74494 10.66648 19847 ft 253 kts
2026-04-27 13:30 59.76227 10.67234 20123 ft 255 kts
2026-04-27 13:30 59.77990 10.67831 20389 ft 256 kts
2026-04-27 13:30 59.79743 10.68425 20631 ft 257 kts
2026-04-27 13:31 59.81505 10.69022 20863 ft 258 kts
2026-04-27 13:31 59.83253 10.69615 21085 ft 258 kts
2026-04-27 13:31 59.85037 10.70221 21295 ft 260 kts
2026-04-27 13:31 59.86798 10.70822 21493 ft 261 kts
2026-04-27 13:32 59.88600 10.71435 21690 ft 262 kts
2026-04-27 13:32 59.90406 10.72051 21880 ft 263 kts
2026-04-27 13:32 59.92201 10.72664 22057 ft 264 kts
2026-04-27 13:32 59.94003 10.73280 22228 ft 264 kts
2026-04-27 13:33 59.95804 10.73897 22393 ft 265 kts
2026-04-27 13:33 59.97641 10.74526 22555 ft 266 kts
2026-04-27 13:33 59.99452 10.75148 22707 ft 267 kts
2026-04-27 13:33 60.01279 10.75775 22854 ft 268 kts
2026-04-27 13:34 60.03112 10.76406 22997 ft 269 kts
2026-04-27 13:34 60.04966 10.77044 23138 ft 269 kts
2026-04-27 13:34 60.06807 10.77679 23294 ft 269 kts
2026-04-27 13:34 60.08659 10.78319 23453 ft 269 kts
2026-04-27 13:35 60.10508 10.78958 23606 ft 268 kts
2026-04-27 13:35 60.12328 10.79588 23756 ft 268 kts
2026-04-27 13:35 60.14183 10.80231 23894 ft 268 kts
2026-04-27 13:35 60.16018 10.80866 24019 ft 269 kts
2026-04-27 13:36 60.17874 10.81511 24146 ft 269 kts
2026-04-27 13:36 60.19722 10.82153 24268 ft 270 kts
2026-04-27 13:36 60.21565 10.82793 24380 ft 270 kts
2026-04-27 13:36 60.23413 10.83436 24489 ft 271 kts
2026-04-27 13:37 60.25272 10.84082 24618 ft 272 kts
2026-04-27 13:37 60.27148 10.84738 24742 ft 273 kts
2026-04-27 13:37 60.29013 10.85390 24872 ft 273 kts
2026-04-27 13:37 60.30871 10.86041 24996 ft 273 kts
2026-04-27 13:38 60.32746 10.86700 25117 ft 274 kts
2026-04-27 13:38 60.34623 10.87358 25236 ft 274 kts
2026-04-27 13:38 60.36515 10.88022 25328 ft 276 kts
2026-04-27 13:38 60.38422 10.88690 25358 ft 280 kts
2026-04-27 13:39 60.40347 10.89365 25366 ft 285 kts
2026-04-27 13:39 60.42322 10.90060 25365 ft 290 kts
2026-04-27 13:39 60.44338 10.90769 25345 ft 294 kts
2026-04-27 13:39 60.46375 10.91488 25338 ft 297 kts
2026-04-27 13:40 60.48403 10.92206 25335 ft 299 kts
2026-04-27 13:40 60.50475 10.92941 25333 ft 301 kts
2026-04-27 13:40 60.52534 10.93672 25330 ft 302 kts
2026-04-27 13:40 60.54631 10.94418 25329 ft 303 kts
2026-04-27 13:41 60.56712 10.95160 25330 ft 304 kts
2026-04-27 13:41 60.58787 10.95900 25331 ft 305 kts
2026-04-27 13:41 60.60886 10.96650 25335 ft 305 kts
2026-04-27 13:41 60.62981 10.97398 25337 ft 306 kts
2026-04-27 13:42 60.65062 10.98142 25338 ft 306 kts
2026-04-27 13:42 60.67180 10.98900 25340 ft 306 kts
2026-04-27 13:42 60.69289 10.99653 25341 ft 307 kts
2026-04-27 13:42 60.71373 11.00400 25343 ft 307 kts
2026-04-27 13:43 60.73477 11.01156 25344 ft 307 kts
2026-04-27 13:43 60.75580 11.01911 25346 ft 306 kts
2026-04-27 13:43 60.77700 11.02675 25345 ft 306 kts
2026-04-27 13:43 60.79798 11.03432 25345 ft 306 kts
2026-04-27 13:44 60.81891 11.04188 25345 ft 306 kts
2026-04-27 13:44 60.83964 11.04938 25344 ft 306 kts
2026-04-27 13:44 60.86067 11.05700 25343 ft 306 kts
2026-04-27 13:44 60.88157 11.06458 25341 ft 306 kts
2026-04-27 13:45 60.90245 11.07217 25338 ft 306 kts
2026-04-27 13:45 60.92345 11.07981 25336 ft 306 kts
2026-04-27 13:45 60.94427 11.08740 25331 ft 305 kts
2026-04-27 13:45 60.96535 11.09509 25321 ft 306 kts
2026-04-27 13:46 60.98622 11.10271 25296 ft 307 kts
2026-04-27 13:46 61.00727 11.11040 25261 ft 307 kts
2026-04-27 13:46 61.02825 11.11808 25236 ft 307 kts
2026-04-27 13:46 61.04929 11.12581 25224 ft 307 kts
2026-04-27 13:47 61.07019 11.13349 25217 ft 306 kts
2026-04-27 13:47 61.09118 11.14122 25215 ft 305 kts
2026-04-27 13:47 61.11206 11.14891 25220 ft 304 kts
2026-04-27 13:47 61.13284 11.15658 25223 ft 304 kts
2026-04-27 13:48 61.15361 11.16424 25230 ft 303 kts
2026-04-27 13:48 61.17445 11.17195 25240 ft 303 kts
2026-04-27 13:48 61.19515 11.17962 25254 ft 302 kts
2026-04-27 13:48 61.21576 11.18726 25269 ft 302 kts
2026-04-27 13:49 61.23660 11.19500 25284 ft 302 kts
2026-04-27 13:49 61.25716 11.20264 25301 ft 301 kts
2026-04-27 13:49 61.27764 11.21026 25313 ft 301 kts
2026-04-27 13:49 61.29829 11.21795 25315 ft 301 kts
2026-04-27 13:50 61.31884 11.22562 25315 ft 302 kts
2026-04-27 13:50 61.33932 11.23327 25312 ft 302 kts
2026-04-27 13:50 61.36019 11.24108 25310 ft 302 kts
2026-04-27 13:50 61.38065 11.24874 25311 ft 302 kts
2026-04-27 13:51 61.40144 11.25655 25312 ft 301 kts
2026-04-27 13:51 61.42202 11.26428 25313 ft 301 kts
2026-04-27 13:51 61.44241 11.27199 25317 ft 301 kts
2026-04-27 13:51 61.46296 11.27977 25322 ft 300 kts
2026-04-27 13:52 61.48346 11.28754 25328 ft 300 kts
2026-04-27 13:52 61.50404 11.29533 25334 ft 300 kts
2026-04-27 13:52 61.52464 11.30314 25336 ft 299 kts
2026-04-27 13:52 61.54498 11.31086 25336 ft 299 kts
2026-04-27 13:53 61.58597 11.32642 25334 ft 299 kts
2026-04-27 13:53 61.60641 11.33420 25332 ft 299 kts
2026-04-27 13:53 61.62667 11.34192 25330 ft 298 kts
2026-04-27 13:54 61.64714 11.34973 25328 ft 298 kts
2026-04-27 13:54 61.66751 11.35751 25327 ft 298 kts
2026-04-27 13:54 61.68809 11.36538 25325 ft 297 kts
2026-04-27 13:54 61.70852 11.37321 25323 ft 297 kts
2026-04-27 13:55 61.72883 11.38100 25321 ft 297 kts
2026-04-27 13:55 61.74915 11.38880 25320 ft 296 kts
2026-04-27 13:55 61.76925 11.39652 25319 ft 296 kts
2026-04-27 13:55 61.78949 11.40432 25319 ft 296 kts
2026-04-27 13:56 61.80964 11.41208 25318 ft 295 kts
2026-04-27 13:56 61.82990 11.41990 25317 ft 295 kts
2026-04-27 13:56 61.85012 11.42772 25333 ft 294 kts
2026-04-27 13:56 61.87043 11.43558 25359 ft 293 kts
2026-04-27 13:57 61.89030 11.44329 25386 ft 292 kts
2026-04-27 13:57 61.91037 11.45108 25416 ft 291 kts
2026-04-27 13:57 61.93011 11.45875 25430 ft 291 kts
2026-04-27 13:57 61.95023 11.46656 25434 ft 292 kts
2026-04-27 13:58 61.97028 11.47437 25435 ft 292 kts
2026-04-27 13:58 61.99005 11.48205 25434 ft 292 kts
2026-04-27 13:58 62.01038 11.48446 25429 ft 286 kts 352°
2026-04-27 13:58 62.03034 11.48005 25428 ft 285 kts 350°
2026-04-27 13:59 62.05040 11.47518 25429 ft 285 kts 350°
2026-04-27 13:59 62.07013 11.47039 25433 ft 284 kts 350°
2026-04-27 13:59 62.08982 11.46566 25436 ft 284 kts 350°
2026-04-27 13:59 62.10979 11.46090 25441 ft 284 kts 350°
2026-04-27 14:00 62.12938 11.45625 25440 ft 284 kts 350°
2026-04-27 14:00 62.14917 11.45158 25437 ft 285 kts 350°
2026-04-27 14:00 62.16893 11.44692 25424 ft 285 kts 350°
2026-04-27 14:00 62.18852 11.44231 25409 ft 286 kts 350°
2026-04-27 14:01 62.20832 11.43766 25393 ft 286 kts 350°
2026-04-27 14:01 62.22820 11.43299 25374 ft 287 kts 350°
2026-04-27 14:01 62.24798 11.42835 25355 ft 287 kts 350°
2026-04-27 14:01 62.26788 11.42367 25345 ft 287 kts 350°
2026-04-27 14:02 62.28757 11.41904 25358 ft 286 kts 350°
2026-04-27 14:02 62.30722 11.41442 25378 ft 285 kts 350°
2026-04-27 14:02 62.32694 11.40978 25398 ft 284 kts 350°
2026-04-27 14:02 62.34637 11.40519 25417 ft 283 kts 350°
2026-04-27 14:03 62.36621 11.40051 25432 ft 283 kts 350°
2026-04-27 14:03 62.38579 11.39588 25436 ft 283 kts 350°
2026-04-27 14:03 62.40521 11.39127 25438 ft 284 kts 350°
2026-04-27 14:03 62.42480 11.38662 25437 ft 284 kts 350°
2026-04-27 14:04 62.44451 11.38194 25436 ft 285 kts 350°
2026-04-27 14:04 62.46433 11.37723 25431 ft 285 kts 350°
2026-04-27 14:04 62.48411 11.37253 25428 ft 285 kts 350°
2026-04-27 14:04 62.50371 11.36786 25427 ft 285 kts 350°
2026-04-27 14:05 62.52356 11.36313 25426 ft 285 kts 350°
2026-04-27 14:05 62.54311 11.35846 25426 ft 285 kts 350°
2026-04-27 14:05 62.56273 11.35376 25427 ft 284 kts 350°
2026-04-27 14:05 62.58253 11.34902 25427 ft 284 kts 350°
2026-04-27 14:06 62.60208 11.34433 25428 ft 284 kts 350°
2026-04-27 14:06 62.62189 11.33957 25429 ft 284 kts 350°
2026-04-27 14:06 62.64148 11.33485 25429 ft 284 kts 350°
2026-04-27 14:06 62.66109 11.33012 25430 ft 284 kts 350°
2026-04-27 14:07 62.68047 11.32544 25431 ft 284 kts 350°
2026-04-27 14:07 62.70020 11.32066 25431 ft 284 kts 350°
2026-04-27 14:07 62.71978 11.31592 25432 ft 283 kts 350°
2026-04-27 14:07 62.73928 11.31120 25263 ft 281 kts 350°
2026-04-27 14:08 62.75847 11.30652 24984 ft 278 kts 350°
2026-04-27 14:08 62.77751 11.30185 24605 ft 272 kts 350°
2026-04-27 14:08 62.79627 11.29718 23976 ft 268 kts 350°
2026-04-27 14:08 62.81459 11.29268 23525 ft 259 kts 350°
2026-04-27 14:09 62.83235 11.28834 23141 ft 248 kts 350°
2026-04-27 14:09 62.84970 11.28588 22774 ft 252 kts 354°
2026-04-27 14:09 62.86709 11.28485 22416 ft 251 kts 354°
2026-04-27 14:09 62.88438 11.28384 22077 ft 251 kts 354°
2026-04-27 14:10 62.90168 11.28277 21744 ft 250 kts 354°
2026-04-27 14:10 62.91895 11.28164 21429 ft 249 kts 354°
2026-04-27 14:10 62.93651 11.28045 21105 ft 249 kts 354°
2026-04-27 14:10 62.95374 11.27923 20781 ft 249 kts 354°
2026-04-27 14:11 62.97089 11.27800 20456 ft 249 kts 354°
2026-04-27 14:11 62.98837 11.27923 20109 ft 254 kts
2026-04-27 14:11 63.00535 11.28883 19603 ft 255 kts
2026-04-27 14:11 63.02206 11.30000 19022 ft 251 kts
2026-04-27 14:12 63.03870 11.31123 18433 ft 247 kts
2026-04-27 14:12 63.05481 11.32207 17773 ft 246 kts
2026-04-27 14:12 63.07109 11.33296 17063 ft 246 kts
2026-04-27 14:12 63.08746 11.34389 16362 ft 246 kts
2026-04-27 14:13 63.10370 11.35473 15679 ft 244 kts 10°
2026-04-27 14:13 63.11979 11.36548 15016 ft 243 kts 10°
2026-04-27 14:13 63.13586 11.37617 14254 ft 244 kts 10°
2026-04-27 14:13 63.15211 11.38700 13472 ft 245 kts 10°
2026-04-27 14:14 63.16841 11.39788 12687 ft 246 kts 11°
2026-04-27 14:14 63.18464 11.40870 12008 ft 245 kts 11°
2026-04-27 14:14 63.20074 11.41948 11384 ft 244 kts 11°
2026-04-27 14:14 63.21673 11.43019 10849 ft 240 kts 11°
2026-04-27 14:15 63.23243 11.44076 10403 ft 233 kts 11°
2026-04-27 14:15 63.24764 11.45097 9932 ft 226 kts 11°
2026-04-27 14:15 63.26240 11.46091 9526 ft 215 kts 12°
2026-04-27 14:15 63.27623 11.47025 9187 ft 202 kts 12°
2026-04-27 14:16 63.28958 11.47926 8892 ft 200 kts 12°
2026-04-27 14:16 63.30288 11.48821 8609 ft 200 kts 12°
2026-04-27 14:16 63.31615 11.49706 8324 ft 200 kts 12°
2026-04-27 14:16 63.32944 11.50594 8033 ft 200 kts 12°
2026-04-27 14:17 63.34259 11.51482 7745 ft 201 kts 12°
2026-04-27 14:17 63.35610 11.52394 7458 ft 201 kts 12°
2026-04-27 14:17 63.36940 11.53285 7176 ft 202 kts 12°
2026-04-27 14:17 63.38315 11.53980 6856 ft 200 kts 356°
2026-04-27 14:18 63.39630 11.53318 6607 ft 188 kts 339°
2026-04-27 14:18 63.40823 11.52362 6310 ft 182 kts 336°
2026-04-27 14:18 63.41954 11.51189 5962 ft 178 kts 339°
2026-04-27 14:18 63.43123 11.50366 5610 ft 175 kts 341°
2026-04-27 14:19 63.44251 11.49596 5308 ft 166 kts 341°
2026-04-27 14:19 63.45241 11.48512 5043 ft 156 kts 311°
2026-04-27 14:19 63.45508 11.46159 4943 ft 158 kts 273°
2026-04-27 14:19 63.45486 11.43778 4814 ft 154 kts 278°
2026-04-27 14:20 63.45551 11.41399 4713 ft 153 kts 278°
2026-04-27 14:20 63.45583 11.39002 4555 ft 156 kts 276°
2026-04-27 14:20 63.45601 11.36510 4358 ft 162 kts 276°
2026-04-27 14:20 63.45614 11.34054 4075 ft 154 kts 275°
2026-04-27 14:21 63.45614 11.31779 3733 ft 143 kts 275°
2026-04-27 14:21 63.45622 11.29625 3449 ft 137 kts 276°
2026-04-27 14:21 63.45643 11.27507 3299 ft 135 kts 276°
2026-04-27 14:21 63.45659 11.25391 3161 ft 139 kts 275°
2026-04-27 14:22 63.45676 11.23210 3015 ft 140 kts 274°
2026-04-27 14:22 63.45677 11.21019 2787 ft 140 kts 273°
2026-04-27 14:22 63.45685 11.18875 2572 ft 137 kts 273°
2026-04-27 14:22 63.45692 11.16778 2356 ft 134 kts 273°
2026-04-27 14:23 63.45702 11.14680 2183 ft 134 kts 274°
2026-04-27 14:23 63.45707 11.12619 1967 ft 133 kts 274°
2026-04-27 14:23 63.45712 11.10543 1753 ft 133 kts 274°
2026-04-27 14:23 63.45726 11.08509 1550 ft 132 kts 273°
2026-04-27 14:24 63.45731 11.06470 1347 ft 131 kts 273°
2026-04-27 14:24 63.45740 11.04401 1149 ft 133 kts 272°
2026-04-27 14:24 63.45740 11.02415 930 ft 130 kts 270°
2026-04-27 14:24 63.45731 11.00379 717 ft 131 kts 272°
2026-04-27 14:25 63.45752 10.98384 536 ft 127 kts 270°
2026-04-27 14:25 63.45757 10.96413 314 ft 126 kts 269°
2026-04-27 14:25 63.45755 10.94473 100 ft 127 kts 270°
2026-04-27 14:25 63.45760 10.92609 34 ft 93 kts 270°
2026-04-27 14:26 63.45761 10.91501 27 ft 55 kts 270°
2026-04-27 14:26 63.45761 10.90906 21 ft 30 kts 266°
2026-04-27 14:26 63.45725 10.90503 16 ft 23 kts 242°
2026-04-27 14:26 63.45613 10.90403 16 ft 17 kts 136°
2026-04-27 14:27 63.45598 10.90670 20 ft 19 kts 90°
2026-04-27 14:27 63.45598 10.90977 25 ft 17 kts 90°
2026-04-27 14:27 63.45560 10.91145 27 ft 10 kts 181°
2026-04-27 14:27 63.45503 10.91143 27 ft 5 kts 180°
2026-04-27 14:28 63.45463 10.91157 27 ft 7 kts 138°
2026-04-27 14:28 63.45454 10.91246 28 ft 4 kts 90°
2026-04-27 14:28 63.45454 10.91273 28 ft 0 kts 90°